| time (UTC) | temp F | wind direction | speed MPH | gust MPH | rain 1hr in | rain 24hr in | rain mn in | humidity % | barometer mb |
| 20260902154517 | 65 | 0.0 | 0.0 | 0.00 | 0.00 | 0.00 | 10 | 1003.8 | |
| 20260902151518 | 68 | 0.0 | 0.0 | 0.00 | 0.00 | 0.00 | 10 | 1003.9 | |
| 20260902150018 | 68 | 0.0 | 0.0 | 0.00 | 0.00 | 0.00 | 10 | 1004.0 | |
| 20260902144517 | 69 | 0.0 | 0.0 | 0.00 | 0.00 | 0.00 | 10 | 1004.1 | |
| 20260902143018 | 69 | 0.0 | 0.0 | 0.00 | 0.00 | 0.00 | 10 | 1004.1 | |
| 20260902140018 | 69 | 0.0 | 0.0 | 0.00 | 0.00 | 0.00 | 10 | 1004.0 | |
| 20260902134517 | 68 | 0.0 | 0.0 | 0.00 | 0.00 | 0.00 | 10 | 1004.1 | |
| 20260902133018 | 69 | 0.0 | 0.0 | 0.00 | 0.00 | 0.00 | 10 | 1004.2 | |
| 20260902131518 | 69 | 0.0 | 0.0 | 0.00 | 0.00 | 0.00 | 10 | 1004.2 | |
| 20260902130018 | 68 | 0.0 | 0.0 | 0.00 | 0.00 | 0.00 | 10 | 1004.2 | |
| 20260902124518 | 67 | 0.0 | 0.0 | 0.00 | 0.00 | 0.00 | 10 | 1004.3 | |
| 20260902123018 | 67 | 0.0 | 0.0 | 0.00 | 0.00 | 0.00 | 10 | 1004.3 | |
| 20260902121518 | 66 | 0.0 | 0.0 | 0.00 | 0.00 | 0.00 | 10 | 1004.3 | |
| 20260902120023 | 65 | 0.0 | 0.0 | 0.00 | 0.00 | 0.00 | 10 | 1004.4 | |
| 20260902114548 | 64 | 0.0 | 0.0 | 0.00 | 0.00 | 0.00 | 10 | 1004.5 | |
| 20260902113052 | 64 | 0.0 | 0.0 | 0.00 | 0.00 | 0.00 | 10 | 1004.5 | |
| 20260902103033 | 62 | 0.0 | 0.0 | 0.00 | 0.00 | 0.00 | 10 | 1004.6 | |
| 20260902064623 | 55 | 0.0 | 0.0 | 0.00 | 0.00 | 0.00 | 10 | 1004.4 | |
| 20260902061558 | 54 | 0.0 | 0.0 | 0.00 | 0.00 | 0.00 | 10 | 1004.3 | |
| 20260902060032 | 54 | 0.0 | 0.0 | 0.00 | 0.00 | 0.00 | 10 | 1004.3 | |
| 20260902034518 | 55 | 0.0 | 0.0 | 0.00 | 0.00 | 0.00 | 10 | 1003.7 | |
| 20260902033033 | 54 | 0.0 | 0.0 | 0.00 | 0.00 | 0.00 | 10 | 1003.6 | |
| 20260902031558 | 54 | 0.0 | 0.0 | 0.00 | 0.00 | 0.00 | 10 | 1003.7 | |
| 20260902030152 | 54 | 0.0 | 0.0 | 0.00 | 0.00 | 0.00 | 10 | 1003.7 | |
| 20260902024522 | 54 | 0.0 | 0.0 | 0.00 | 0.00 | 0.00 | 10 | 1003.6 | |
| 20260902021618 | 53 | 0.0 | 0.0 | 0.00 | 0.00 | 0.00 | 10 | 1003.5 | |
| 20260902020138 | 53 | 0.0 | 0.0 | 0.00 | 0.00 | 0.00 | 10 | 1003.5 | |
| 20260902014527 | 53 | 0.0 | 0.0 | 0.00 | 0.00 | 0.00 | 10 | 1003.6 | |
| 20260902013023 | 52 | 0.0 | 0.0 | 0.00 | 0.00 | 0.00 | 10 | 1003.6 | |
| 20260902011523 | 52 | 0.0 | 0.0 | 0.00 | 0.00 | 0.00 | 10 | 1003.6 | |
| 20260902004524 | 52 | 0.0 | 0.0 | 0.00 | 0.00 | 0.00 | 10 | 1003.5 | |
| 20260902001533 | 51 | 0.0 | 0.0 | 0.00 | 0.00 | 0.00 | 10 | 1003.6 | |
| 20260902000047 | 51 | 0.0 | 0.0 | 0.00 | 0.00 | 0.00 | 10 | 1003.6 | |
| 20260901231523 | 52 | 0.0 | 0.0 | 0.00 | 0.00 | 0.00 | 10 | 1003.6 | |
| 20260901221532 | 53 | 0.0 | 0.0 | 0.00 | 0.00 | 0.00 | 10 | 1003.8 | |
| 20260901191538 | 57 | 0.0 | 0.0 | 0.00 | 0.00 | 0.00 | 10 | 1003.8 |